Regional Weather Roundup
Issued by NWS Sterling, VA

Home | Current Version | Previous Version | Text Only | Print | Product List | Glossary On
Versions: 1 2 3 4 5 6 7 8 9 10 11 12 13 14 15 16 17 18 19 20 21 22 23 24 25 26 27 28 29 30 31 32 33 34 35 36 37 38 39 40 41 42 43 44 45 46 47 48 49 50
000
ASUS41 KLWX 170411
RWRLWX

REGIONAL WEATHER ROUNDUP
NATIONAL WEATHER SERVICE BALTIMORE MD/WASHINGTON DC
1100 PM EST MON JAN 16 2017

Note: "FAIR" indicates few or no clouds below 12,000 feet
with no significant weather and/or obstructions to visibility.
 TC=TEMPERATURE CELSIUS

 * =Non NWS site. Station does not report precipitation (e.g. rain,
    snow, etc.), thunder, or fog.

DCZ001-MDZ009-015-VAZ040>042-051-053>054-170500-
WASHINGTON METRO

CITY           SKY/WX    TMP DP  RH WIND       PRES   REMARKS
WASHINGTON NAT LGT RAIN  42  35  76 S7        30.33F
DULLES         LGT RAIN  42  34  73 S6        30.31F
ANDREWS AFB    LGT RAIN  40  33  78 S3        30.31F
FT BELVOIR     LGT RAIN  39  37  93 CALM      30.31F
QUANTICO       CLOUDY    42  38  85 S3        30.33F
LEESBURG*      CLOUDY    45  37  76 MISG      30.31F
GAITHERSBURG*  CLOUDY    41  30  65 S6        30.34F

$$

MDZ006>007-011-014-170500-
BALTIMORE METRO

CITY           SKY/WX    TMP DP  RH WIND       PRES   REMARKS
BWI AIRPORT    CLOUDY    39  30  70 SE3       30.32F
MD SCIENCE CTR   N/A     41  30  65 MISG      30.33F
ANNAPOLIS      CLOUDY    41  32  70 S5        30.33F
FORT MEADE*    CLOUDY    37  32  81 CALM      30.34F

$$

MDZ012-015-019>023-170500-
MARYLAND EASTERN SHORE

CITY           SKY/WX    TMP DP  RH WIND       PRES   REMARKS
OCEAN CITY     CLOUDY    42  34  73 CALM      30.35F
SALISBURY      CLOUDY    41  33  73 CALM      30.34F
BAY BRIDGE AP* CLOUDY    41  27  56 S3        30.33F
CAMBRIDGE*     CLOUDY    41  32  70 CALM      30.33F
EASTON*        CLOUDY    43  32  65 SW6       30.37F

$$

MDZ017>025-170500-
SOUTHERN MARYLAND

CITY           SKY/WX    TMP DP  RH WIND       PRES   REMARKS
PATUXENT RIVER CLOUDY    42  32  67 S5        30.34F
ST INIGOES     NOT AVBL
LEONARDTOWN*   CLOUDY    41  32  70 CALM      30.34F

$$

MDZ003>005-170500-
NORTH CENTRAL MARYLAND

CITY           SKY/WX    TMP DP  RH WIND       PRES   REMARKS
FREDERICK*     CLOUDY    36  36 100 CALM      30.33F
HAGERSTOWN APT CLOUDY    35  31  85 NW3       30.27F FOG
WESTMINSTER*   CLOUDY    36  32  87 S3        30.29S

$$

MDZ501>502-170500-
WESTERN MARYLAND

CITY           SKY/WX    TMP DP  RH WIND       PRES   REMARKS
OAKLAND*         N/A     45  45 100 S7        30.18F FOG
CUMBERLAND*    CLOUDY    37  34  87 S3        30.30F

$$

VAZ025>031-170500-
SHENANDOAH VALLEY

CITY           SKY/WX    TMP DP  RH WIND       PRES   REMARKS
WINCHESTER*    CLOUDY    39  37  93 CALM      30.27S
FRONT ROYAL*   CLOUDY    39  37  93 CALM      30.25F
LURAY*         CLOUDY    45  43  93 SW8       30.25F
NEW MARKET*    CLOUDY    43  40  90 S3        30.26R
STAUNTON*      CLOUDY    41  39  93 S7        30.28S
WAYNESBORO*    MOCLDY    39  38  97 CALM      30.27R

$$

WVZ021-048>050-054>055-170500-
EASTERN WEST VIRGINIA PANHANDLE

CITY           SKY/WX    TMP DP  RH WIND       PRES   REMARKS
MARTINSBURG    CLOUDY    37  31  78 CALM      30.27F
PETERSBURG*    PTCLDY    39  36  88 CALM      30.27F

$$

VAZ036>039-050-170500-
CENTRAL FOOTHILLS

CITY           SKY/WX    TMP DP  RH WIND       PRES   REMARKS
CHARLOTTESVILL CLOUDY    43  41  93 SW6       30.29F FOG
CULPEPER*      LGT RAIN  43  41  92 S3        30.30F
ORANGE*          N/A     41  41 100 CALM      30.31F
GORDONSVILLE*  CLOUDY    41  40  98 S3        30.29F
WARRENTON*     RAIN      43  39  85 CALM      30.30F

$$

VAZ055>057-170500-
NORTH AND CENTRAL PIEDMONT

CITY           SKY/WX    TMP DP  RH WIND       PRES   REMARKS
FREDERICKSBRG* CLOUDY    43  39  86 SE5       30.31F
STAFFORD*      CLOUDY    41  37  87 CALM      30.36F

$$

NCZ024-NYZ072-PAZ021-071-VAZ022-071-170500-
OTHER REGIONAL OBSERVATIONS

CITY           SKY/WX    TMP DP  RH WIND       PRES   REMARKS
NEW YORK CITY  CLOUDY    41  24  51 VRB6      30.33F
PHILADELPHIA   CLOUDY    38  28  67 W6        30.34F
PITTSBURGH     CLOUDY    37  36  96 SE5       30.16F
ROANOKE        CLOUDY    42  42 100 CALM      30.30F
RICHMOND       CLOUDY    42  40  92 S3        30.32F
RALEIGH        CLOUDY    48  41  76 SW5       30.33F

$$

ANZ530>537-170500-
MARINE OBSERVATIONS

STATION/POSITION TIME  TEMP    WIND        PRES
                       AIR SEA DIR/SP/G
                 (UTC) (F)     (DEG/KT/KT) (MB)
THOMAS PT LIGHT  0400   39 38  180/  8/  8   N/A
BALT KEY BRIDGE  0342   38      60/  3/  4 1027.1F
COVE POINT       0342   41     190/  5/  6 1027.8F
LEWISETTA        0342   42 42  190/  5/  6 1027.0F
SOLOMONS ISLAND  0342   42 41  190/  5/  5   N/A
PINEY POINT      0342          180/  4/  4   N/A

$$




USA.gov is the U.S. government's official web portal to all federal, state and local government web resources and services.